TITAN 3C TRANSTAGE DEB, 26048

Orbit data source: Space-Track

TITAN 3C TRANSTAGE DEB, 26048 is space debris in HEO originally from a launch on Tue, 21 Dec 1965 UTC launched from the Air Force Eastern Test Range (AFETR). Debris objects in space refer to the collection of defunct objects orbiting the Earth. Examples of debris include non-operational satellites, rocket bodies, and fragments generated from explosions, collisions, or faulty payload assembly.

Loading next visibility...
Identifier
26048, 1965-108AG
Orbit
HEO
Country
Flag of USUS
Related business
Manufacturer
Unknown
Mission
Spacecraft
Bus & Motor
Unknown
Mass
Unknown
Launch date (UTC)
1965-12-21 (61 years ago)
Launch vehicle
Unknown
Launch site
Air Force Eastern Test Range (AFETR)
Object type
Payload
Rocket body
Debris
Shape & HBR
Unknown shape, 0.3 m
Radar Cross Section
Medium (>0.1 m² and <1 m²)

Expand to show TLE details & history
Last TLE update: 21 hours ago

TLE from 21 hours ago
0 TITAN 3C TRANSTAGE DEB
1 26048U 65108AG  26264.94851814  .00000487  00000-0  36763-3 0  9997
2 26048  26.5895  12.4547 6236101 288.6201  16.2015  3.64437785336695
Epoch: 2026-09-21T22:45Z
TLE epoch observation values (Epoch: 2026-09-21T22:45:51.967Z)
Latitude
0.00003°
Longitude
30.15771°
Altitude
2,714.888 km
Speed
8.082 km/s
True Right ascension
00h 49m 46s
True Declination
0° 00' 00"
Sunlit
Object was in full shadow at epoch
Visualization orbit readout
Latitude
Unknown
Longitude
Unknown
Altitude
Unknown
Speed
Unknown
Apparent Right ascension
Unknown
Apparent Declination
Unknown
Sunlit
N/A
Visualization observer readout
Local Sidereal Time
13:03:30
Azimuth
Unknown
Elevation
Unknown
Doppler factor
Unknown
Orbital elements
Apogee altitude
22,587.936 km
Perigee altitude
336.86 km
Semi-major axis
17,840.535 km
Eccentricity
0.62361
Inclination
26.5895°
RAAN
12.4547°
Arg. of periapsis
288.6201°
True anomaly
71.73949°
Mean anomaly
16.2015°
Eccentric anomaly
38.39071°
Mean motion
0.91082 °/min
Orbital period
395.25 mins
BSTAR
0.00036763
Loading maneuver chart data...
Computing Atmospheric mass density...

Documentation

Showing up to 5 results
|